Regional Weather Roundup
Issued by NWS

Home | Current Version | Previous Version | Text Only | Print | Product List | Glossary Off
Versions: 1 2 3 4 5 6 7 8 9 10 11 12 13 14 15 16 17 18 19 20 21 22 23 24 25 26 27 28 29 30 31 32 33 34 35 36 37 38 39 40 41 42 43 44 45 46 47 48 49 50

000
ASUS43 KLMK 011602
RWRKY
KENTUCKY REGIONAL WEATHER ROUNDUP
NATIONAL WEATHER SERVICE LOUISVILLE KY
1200 PM EDT WED JUL 01 2015

NOTE "FAIR" INDICATES FEW OR NO CLOUDS BELOW 12,000 FEET
WITH NO SIGNIFICANT WEATHER AND/OR OBSTRUCTIONS TO VISIBILITY.

KYZ001>023-026-027-061>063-070>075-011700-
WESTERN AND SOUTH CENTRAL KENTUCKY

CITY           SKY/WX    TMP DP  RH WIND       PRES   REMARKS
PADUCAH        CLOUDY    72  69  90 SW5       29.98S
HENDERSON      CLOUDY    73  70  88 SW6       29.95R
OWENSBORO      LGT RAIN  76  73  90 W7        29.96S FOG
HOPKINSVILLE   NOT AVBL
BOWLING GREEN  CLOUDY    76  71  85 SW8       29.98R
GLASGOW        NOT AVBL
$$

KYZ024-025-028>034-038-045-046-053-011700-
NORTH CENTRAL KENTUCKY

CITY           SKY/WX    TMP DP  RH WIND       PRES   REMARKS
LOUISVILLE/SDF CLOUDY    77  69  76 W6        29.95R
LOUISVILLE/LOU PTSUNNY   76  68  76 CALM      29.96R HAZE
FORT KNOX      NOT AVBL
$$

KYZ035>037-039>044-047>052-055>060-089>105-011700-
NORTHEAST KENTUCKY

CITY           SKY/WX    TMP DP  RH WIND       PRES   REMARKS
LEXINGTON      PTSUNNY   76  69  79 VRB3      29.97S
COVINGTON      MOSUNNY   76  62  62 CALM      29.96R
FRANKFORT      MOSUNNY   76  67  73 N3        29.96R
$$

KYZ054-064>069-076>088-106>120-011700-
SOUTHEAST KENTUCKY

CITY           SKY/WX    TMP DP  RH WIND       PRES   REMARKS
JACKSON        PTSUNNY   75  69  81 VRB3      29.98F
LONDON         PTSUNNY   79  67  66 SW8       29.99S
SOMERSET       NOT AVBL
MIDDLESBORO    PTSUNNY   76  70  79 CALM      30.00S
MONTICELLO     PTSUNNY   76  73  90 SW6       30.02R
$$




USA.gov is the U.S. government's official web portal to all federal, state and local government web resources and services.